Location: La Pernelle
(49.6188°N, 1.2999°W)
Time: 09:31:26
(UTC+00:00)

BREEZE-M DEB (TANK) - Pass Details

Date: 12 June 2021
Orbit: 320 x 14772 km, 49.5° (Epoch: 02 August)

Event Time Altitude Azimuth Distance (km) Brightness Sun altitude
Rises 21:11:45 0° 208° (SSW) 2,054 5.5 -7.6°
Reaches altitude 10° 21:13:31 10° 188° (S) 1,328 4.4 -7.8°
Maximum altitude 21:15:32 21° 133° (SE) 1,086 3.7 -8.0°
Drops below altitude 10° 21:18:55 10° 82° (E) 2,304 5.7 -8.4°
Sets 21:23:26 0° 69° (ENE) 4,430 7.3 -8.8°
